timestamp,wind_dir_avg,wind_spd_max_dir,wind_spd_avg,wind_spd_gust,battery_voltage,lat,long
2018-04-19 00:00:00+00:00,247.0,249.0,9.12,10.21,,47.59359,-54.27349
2018-04-19 00:10:00+00:00,260.0,263.0,9.51,10.34,,47.59359,-54.27349
2018-04-19 00:20:00+00:00,261.0,265.0,8.04,8.93,,47.59359,-54.27349
2018-04-19 00:30:00+00:00,257.0,263.0,9.14,10.79,,47.59359,-54.27349
2018-04-19 00:40:00+00:00,246.0,252.0,10.07,11.67,,47.59359,-54.27349
2018-04-19 00:50:00+00:00,244.0,246.0,9.83,11.07,,47.59359,-54.27349
2018-04-19 01:00:00+00:00,242.0,253.0,9.44,11.58,,47.59359,-54.27349
2018-04-19 01:10:00+00:00,241.0,257.0,7.85,10.99,,47.59359,-54.27349
2018-04-19 01:20:00+00:00,243.0,249.0,9.64,11.07,,47.59359,-54.27349
2018-04-19 01:30:00+00:00,240.0,248.0,7.95,9.71,,47.59359,-54.27349
2018-04-19 01:40:00+00:00,236.0,237.0,7.46,8.71,,47.59359,-54.27349
2018-04-19 01:50:00+00:00,239.0,240.0,6.92,8.27,,47.59359,-54.27349
2018-04-19 02:00:00+00:00,240.0,249.0,7.74,8.75,,47.59359,-54.27349
2018-04-19 02:10:00+00:00,264.0,264.0,9.38,10.2,,47.59359,-54.27349
2018-04-19 02:20:00+00:00,262.0,265.0,9.68,10.77,,47.59359,-54.27349
2018-04-19 02:30:00+00:00,263.0,263.0,8.54,9.43,,47.59359,-54.27349
2018-04-19 02:40:00+00:00,251.0,252.0,7.51,8.81,,47.59359,-54.27349
2018-04-19 02:50:00+00:00,246.0,248.0,7.69,9.31,,47.59359,-54.27349
2018-04-19 03:00:00+00:00,246.0,251.0,7.87,9.15,,47.59359,-54.27349
2018-04-19 03:10:00+00:00,243.0,242.0,8.65,10.55,,47.59359,-54.27349
2018-04-19 03:20:00+00:00,241.0,250.0,8.73,10.26,,47.59359,-54.27349
2018-04-19 03:30:00+00:00,250.0,244.0,9.22,10.61,,47.59359,-54.27349
2018-04-19 03:40:00+00:00,245.0,235.0,8.05,10.59,,47.59359,-54.27349
2018-04-19 03:50:00+00:00,248.0,250.0,8.73,10.04,,47.59359,-54.27349
2018-04-19 04:00:00+00:00,247.0,252.0,8.95,10.16,,47.59359,-54.27349
2018-04-19 04:10:00+00:00,239.0,236.0,7.72,9.1,,47.59359,-54.27349
2018-04-19 04:20:00+00:00,244.0,248.0,9.05,10.57,,47.59359,-54.27349
2018-04-19 04:30:00+00:00,247.0,249.0,8.46,9.74,,47.59359,-54.27349
2018-04-19 04:40:00+00:00,247.0,242.0,9.0,10.19,,47.59359,-54.27349
2018-04-19 04:50:00+00:00,241.0,242.0,9.59,11.39,,47.59359,-54.27349
2018-04-19 05:00:00+00:00,240.0,240.0,9.93,11.69,,47.59359,-54.27349
2018-04-19 05:10:00+00:00,243.0,251.0,9.35,11.36,,47.59359,-54.27349
2018-04-19 05:20:00+00:00,243.0,244.0,10.59,12.16,,47.59359,-54.27349
2018-04-19 05:30:00+00:00,242.0,239.0,9.6,11.86,,47.59359,-54.27349
2018-04-19 05:40:00+00:00,239.0,235.0,11.13,13.44,,47.59359,-54.27349
2018-04-19 05:50:00+00:00,243.0,238.0,11.86,16.05,,47.59359,-54.27349
2018-04-19 06:00:00+00:00,238.0,228.0,10.74,12.64,,47.59359,-54.27349
2018-04-19 06:10:00+00:00,243.0,242.0,10.4,11.68,,47.59359,-54.27349
2018-04-19 06:20:00+00:00,246.0,230.0,10.98,12.03,,47.59359,-54.27349
2018-04-19 06:30:00+00:00,247.0,245.0,11.19,13.75,,47.59359,-54.27349
2018-04-19 06:40:00+00:00,248.0,255.0,10.34,13.87,,47.59359,-54.27349
2018-04-19 06:50:00+00:00,225.0,222.0,9.95,11.47,,47.59359,-54.27349
2018-04-19 07:00:00+00:00,229.0,229.0,8.29,9.74,,47.59359,-54.27349
2018-04-19 07:10:00+00:00,236.0,230.0,8.4,9.64,,47.59359,-54.27349
2018-04-19 07:20:00+00:00,248.0,247.0,7.5,9.47,,47.59359,-54.27349
2018-04-19 07:30:00+00:00,244.0,245.0,9.72,11.06,,47.59359,-54.27349
2018-04-19 07:40:00+00:00,245.0,240.0,9.02,10.91,,47.59359,-54.27349
2018-04-19 07:50:00+00:00,242.0,244.0,9.16,10.99,,47.59359,-54.27349
2018-04-19 08:00:00+00:00,246.0,245.0,9.53,10.83,,47.59359,-54.27349
2018-04-19 08:10:00+00:00,250.0,254.0,9.05,9.8,,47.59359,-54.27349
2018-04-19 08:20:00+00:00,253.0,256.0,8.18,9.94,,47.59359,-54.27349
2018-04-19 08:30:00+00:00,252.0,252.0,8.88,9.98,,47.59359,-54.27349
2018-04-19 08:40:00+00:00,251.0,253.0,7.13,7.88,,47.59359,-54.27349
2018-04-19 08:50:00+00:00,249.0,250.0,6.81,7.95,,47.59359,-54.27349
2018-04-19 09:00:00+00:00,245.0,251.0,6.22,7.63,,47.59359,-54.27349
2018-04-19 09:10:00+00:00,246.0,247.0,6.73,7.73,,47.59359,-54.27349
2018-04-19 09:20:00+00:00,239.0,243.0,5.94,7.01,,47.59359,-54.27349
2018-04-19 09:30:00+00:00,242.0,248.0,7.73,8.89,,47.59359,-54.27349
2018-04-19 09:40:00+00:00,242.0,237.0,6.61,8.07,,47.59359,-54.27349
2018-04-19 09:50:00+00:00,244.0,245.0,6.98,7.9,,47.59359,-54.27349
2018-04-19 10:00:00+00:00,244.0,251.0,6.66,7.49,,47.59359,-54.27349
2018-04-19 10:10:00+00:00,240.0,241.0,6.09,7.24,,47.59359,-54.27349
2018-04-19 10:20:00+00:00,244.0,238.0,7.07,8.23,,47.59359,-54.27349
2018-04-19 10:30:00+00:00,248.0,249.0,6.73,7.26,,47.59359,-54.27349
2018-04-19 10:40:00+00:00,247.0,246.0,7.24,8.37,,47.59359,-54.27349
2018-04-19 10:50:00+00:00,243.0,255.0,7.06,8.45,,47.59359,-54.27349
2018-04-19 11:00:00+00:00,238.0,233.0,7.11,8.68,,47.59359,-54.27349
2018-04-19 11:10:00+00:00,242.0,252.0,5.99,8.17,,47.59359,-54.27349
2018-04-19 11:20:00+00:00,242.0,249.0,6.91,7.99,,47.59359,-54.27349
2018-04-19 11:30:00+00:00,241.0,239.0,6.8,7.96,,47.59359,-54.27349
2018-04-19 11:40:00+00:00,243.0,242.0,7.49,9.14,,47.59359,-54.27349
2018-04-19 11:50:00+00:00,244.0,241.0,7.98,9.27,,47.59359,-54.27349
2018-04-19 12:00:00+00:00,244.0,246.0,7.07,7.87,,47.59359,-54.27349
2018-04-19 12:10:00+00:00,235.0,232.0,6.42,7.66,,47.59359,-54.27349
2018-04-19 12:20:00+00:00,242.0,240.0,6.19,7.21,,47.59359,-54.27349
2018-04-19 12:30:00+00:00,238.0,244.0,7.19,8.45,,47.59359,-54.27349
2018-04-19 12:40:00+00:00,233.0,232.0,7.2,8.22,,47.59359,-54.27349
2018-04-19 12:50:00+00:00,222.0,223.0,7.46,8.61,,47.59359,-54.27349
2018-04-19 13:00:00+00:00,222.0,220.0,8.28,9.39,,47.59359,-54.27349
2018-04-19 13:10:00+00:00,222.0,224.0,9.73,11.31,,47.59359,-54.27349
2018-04-19 13:20:00+00:00,222.0,220.0,9.77,11.48,,47.59359,-54.27349
2018-04-19 13:30:00+00:00,223.0,221.0,10.91,12.42,,47.59359,-54.27349
2018-04-19 13:40:00+00:00,233.0,237.0,8.69,10.05,,47.59359,-54.27349
2018-04-19 13:50:00+00:00,234.0,235.0,7.8,8.96,,47.59359,-54.27349
2018-04-19 14:00:00+00:00,242.0,241.0,8.15,9.19,,47.59359,-54.27349
2018-04-19 14:10:00+00:00,234.0,231.0,6.72,7.66,,47.59359,-54.27349
2018-04-19 14:20:00+00:00,231.0,236.0,8.06,10.61,,47.59359,-54.27349
2018-04-19 14:30:00+00:00,229.0,233.0,8.56,9.62,,47.59359,-54.27349
2018-04-19 14:40:00+00:00,232.0,232.0,8.18,9.38,,47.59359,-54.27349
2018-04-19 14:50:00+00:00,230.0,230.0,9.68,10.77,,47.59359,-54.27349
2018-04-19 15:00:00+00:00,231.0,234.0,8.25,9.23,,47.59359,-54.27349
2018-04-19 15:10:00+00:00,232.0,232.0,9.18,10.73,,47.59359,-54.27349
2018-04-19 15:20:00+00:00,235.0,238.0,8.14,9.45,,47.59359,-54.27349
2018-04-19 15:30:00+00:00,230.0,230.0,9.16,10.32,,47.59359,-54.27349
2018-04-19 15:40:00+00:00,224.0,227.0,8.77,9.8,,47.59359,-54.27349
2018-04-19 15:50:00+00:00,224.0,224.0,10.55,11.6,,47.59359,-54.27349
2018-04-19 16:00:00+00:00,223.0,226.0,11.95,13.55,,47.59359,-54.27349
2018-04-19 16:10:00+00:00,229.0,229.0,10.48,12.36,,47.59359,-54.27349
2018-04-19 16:20:00+00:00,234.0,232.0,9.28,10.3,,47.59359,-54.27349
2018-04-19 16:30:00+00:00,234.0,233.0,8.51,10.24,,47.59359,-54.27349
2018-04-19 16:40:00+00:00,231.0,231.0,9.1,10.46,,47.59359,-54.27349
2018-04-19 16:50:00+00:00,226.0,226.0,9.59,10.37,,47.59359,-54.27349
2018-04-19 17:00:00+00:00,229.0,232.0,9.61,11.5,,47.59359,-54.27349
2018-04-19 17:10:00+00:00,229.0,229.0,9.26,10.69,,47.59359,-54.27349
2018-04-19 17:20:00+00:00,231.0,231.0,9.45,10.51,,47.59359,-54.27349
2018-04-19 17:30:00+00:00,231.0,225.0,8.18,9.57,,47.59359,-54.27349
2018-04-19 17:40:00+00:00,226.0,228.0,8.56,9.72,,47.59359,-54.27349
2018-04-19 17:50:00+00:00,226.0,229.0,8.16,8.93,,47.59359,-54.27349
2018-04-19 18:00:00+00:00,221.0,218.0,10.68,11.62,,47.59359,-54.27349
2018-04-19 18:10:00+00:00,226.0,229.0,10.6,11.98,,47.59359,-54.27349
2018-04-19 18:20:00+00:00,226.0,224.0,10.18,11.0,,47.59359,-54.27349
2018-04-19 18:30:00+00:00,232.0,237.0,8.68,10.83,,47.59359,-54.27349
2018-04-19 18:40:00+00:00,235.0,241.0,7.33,8.92,,47.59359,-54.27349
2018-04-19 18:50:00+00:00,233.0,235.0,7.37,8.94,,47.59359,-54.27349
2018-04-19 19:00:00+00:00,257.0,258.0,5.65,6.66,,47.59359,-54.27349
2018-04-19 19:10:00+00:00,272.0,276.0,7.28,8.36,,47.59359,-54.27349
2018-04-19 19:20:00+00:00,272.0,274.0,8.38,9.29,,47.59359,-54.27349
2018-04-19 19:30:00+00:00,263.0,267.0,9.05,10.29,,47.59359,-54.27349
2018-04-19 19:40:00+00:00,256.0,256.0,7.28,8.38,,47.59359,-54.27349
2018-04-19 19:50:00+00:00,268.0,264.0,9.9,11.95,,47.59359,-54.27349
2018-04-19 20:00:00+00:00,270.0,270.0,9.22,10.14,,47.59359,-54.27349
2018-04-19 20:10:00+00:00,265.0,267.0,9.34,10.11,,47.59359,-54.27349
2018-04-19 20:20:00+00:00,264.0,261.0,8.09,9.13,,47.59359,-54.27349
2018-04-19 20:30:00+00:00,251.0,256.0,9.33,10.39,,47.59359,-54.27349
2018-04-19 20:40:00+00:00,252.0,255.0,9.31,10.74,,47.59359,-54.27349
2018-04-19 20:50:00+00:00,247.0,250.0,9.2,9.87,,47.59359,-54.27349
2018-04-19 21:00:00+00:00,254.0,253.0,8.6,9.59,,47.59359,-54.27349
2018-04-19 21:10:00+00:00,257.0,262.0,6.79,7.65,,47.59359,-54.27349
2018-04-19 21:20:00+00:00,264.0,259.0,10.26,11.0,,47.59359,-54.27349
2018-04-19 21:30:00+00:00,276.0,279.0,8.37,9.49,,47.59359,-54.27349
2018-04-19 21:40:00+00:00,259.0,259.0,6.2,7.23,,47.59359,-54.27349
2018-04-19 21:50:00+00:00,254.0,257.0,6.67,8.11,,47.59359,-54.27349
2018-04-19 22:00:00+00:00,257.0,257.0,6.54,7.19,,47.59359,-54.27349
2018-04-19 22:10:00+00:00,257.0,258.0,6.69,7.81,,47.59359,-54.27349
2018-04-19 22:20:00+00:00,258.0,258.0,8.68,9.55,,47.59359,-54.27349
2018-04-19 22:30:00+00:00,254.0,255.0,7.09,7.95,,47.59359,-54.27349
2018-04-19 22:40:00+00:00,247.0,250.0,7.74,8.86,,47.59359,-54.27349
2018-04-19 22:50:00+00:00,249.0,256.0,7.49,8.55,,47.59359,-54.27349
2018-04-19 23:00:00+00:00,242.0,247.0,8.89,10.77,,47.59359,-54.27349
2018-04-19 23:10:00+00:00,247.0,247.0,8.19,9.97,,47.59359,-54.27349
2018-04-19 23:20:00+00:00,249.0,253.0,9.32,10.94,,47.59359,-54.27349
2018-04-19 23:30:00+00:00,252.0,255.0,9.5,10.79,,47.59359,-54.27349
2018-04-19 23:40:00+00:00,256.0,256.0,8.29,9.41,,47.59359,-54.27349
2018-04-19 23:50:00+00:00,249.0,249.0,7.26,8.04,,47.59359,-54.27349
